Location: Blackie
(50.6050°N, 113.6230°W)
Time: 11:47:44
(UTC+00:00)

ISS - Pass Details

Date: 03 December 2021
Orbit: 413 x 422 km, 51.6° (Epoch: 19 January)

Event Time Altitude Azimuth Distance (km) Brightness Sun altitude
Rises 00:34:21 0° 279° (W) 2,384 1.1 -9.4°
Reaches altitude 10° 00:36:28 10° 281° (W) 1,516 0.0 -9.7°
Maximum altitude 00:39:52 79° 9° (N) 437 -3.8 -10.2°
Enters shadow 00:42:46 14° 95° (E) 1,311 -1.8 -10.7°
